Regional Weather Roundup
Issued by NWS

Home | Current Version | Previous Version | Text Only | Print | Product List | Glossary Off
Versions: 1 2 3 4 5 6 7 8 9 10 11 12 13 14 15 16 17 18 19 20 21 22 23 24 25 26 27 28 29 30 31 32 33 34 35 36 37 38 39 40 41 42 43 44 45 46 47 48 49 50

000
ASUS45 KSLC 290010
RWRUT

UTAH REGIONAL WEATHER ROUNDUP
NATIONAL WEATHER SERVICE SALT LAKE CITY UT
500 PM MST WED JAN 28 2015

UTZ001>011-023>025-290100-

NORTHERN UTAH

CITY           SKY/WX    TMP DP  RH WIND       PRES   REMARKS
BRIGHAM CITY   CLOUDY    46  39  77 CALM      30.32S
HILL AFB       CLOUDY    45  33  62 NW3       30.30S
LOGAN          CLOUDY    43  38  82 N8        30.32R
OGDEN          CLOUDY    45  37  73 NW5       30.30R
PROVO AIRPORT  MOCLDY    45  34  65 NW12      30.28R
SALT LAKE CITY MOCLDY    46  37  71 N7        30.30S
VERNAL         PTCLDY    48  29  47 CALM      30.24R
WENDOVER       PTCLDY    48  34  57 E3        30.30R
HEBER CITY     CLOUDY    37  32  81 CALM      30.28S
WEST JORDAN    CLOUDY    45  37  76 NW8       30.30S

$$

UTZ012>022-026-027-290100-

SOUTHERN/CENTRAL UTAH

CITY           SKY/WX    TMP DP  RH WIND       PRES   REMARKS
BLANDING       PTCLDY    49  33  54 S5        30.30R
BRYCE CANYON   PTCLDY    44  26  49 CALM      30.26R
CEDAR CITY     PTCLDY    50  30  46 NW6       30.22S
DELTA          CLOUDY    51  33  50 N7        30.26S
HANKSVILLE     MOCLDY    54  30  40 CALM      30.24S
MILFORD        CLEAR     52  32  46 N15       30.23S
MOAB/CYNLANDS  CLEAR     52  32  46 NW7       30.21S
PRICE          CLOUDY    47  27  45 NW6       30.24S
ST GEORGE      MOCLDY    57  39  51 W3        30.21R
KANAB          MOCLDY    50  36  57 S5        30.25R

$$

REGIONAL REPORTS     COLORADO/ARIZONA

CITY           SKY/WX    TMP DP  RH WIND       PRES   REMARKS
CRAIG, CO      CLOUDY    38  31  76 CALM      30.27R
GRAND JUNCTION CLOUDY    49  33  54 N6        30.23R
RIFLE          CLOUDY    46  31  55 W8        30.24R
MONTROSE       CLEAR     50  26  39 NW7       30.24R
CORTEZ         CLEAR     49  29  46 W8        30.23R
PAGE, AZ       NOT AVBL
GRAND CANYON   MOCLDY    47  30  51 NE8       30.24S
KINGMAN        CLOUDY    58  42  55 N7        30.17S
FLAGSTAFF      PTCLDY    49  32  52 E7        30.25R

$$

REGIONAL REPORTS    NEVADA/IDAHO/WYOMING

CITY           SKY/WX    TMP DP  RH WIND       PRES   REMARKS
LAS VEGAS, NV  PTSUNNY   63  42  46 CALM      30.15S
ELY            CLOUDY    46  32  58 N14       30.27R
ELKO           MOCLDY    50  34  54 CALM      30.29S
POCATELLO, ID  CLOUDY    38  37  97 W9        30.35R WCI  31
BURLEY         CLEAR     44  36  73 W10       30.31R
EVANSTON, WY   CLOUDY    37  31  78 SW7       30.29R WCI  32
ROCK SPRINGS   CLOUDY    39  30  70 W14       30.25R WCI  31
KEMMERER       CLEAR     34  32  93 W13       30.28S WCI  25

$$


USA.gov is the U.S. government's official web portal to all federal, state and local government web resources and services.